This demonstration page uses our WeatherBlox Daily Observations layout. Learn more.

Left ArrowRight Arrow

44.8408, -93.29828

Hourly Observations for March 17, 2020

Temp ( °F °C ) Dew Point ( °F °C ) Humidity (%) Winds ( mph kmh ) Pressure ( in mb ) Visibility ( mi km ) Precip ( " mm )
12:53 am 00:53 Mostly Clear 27 -2.8 17 -8.3 66 66 WNW 10 17 30.23 1024 10 16 0.00 0.00
1:53 am 01:53 Cloudy 28 -2.2 18 -7.8 66 66 WNW 12 19 30.23 1024 10 16 0.00 0.00
2:53 am 02:53 Cloudy 31 -0.6 19 -7.2 61 61 NW 17 28 30.24 1024 10 16 0.00 0.00
3:53 am 03:53 Cloudy 31 -0.6 18 -7.8 59 59 W 8 13 30.24 1024 10 16 0.00 0.00
4:53 am 04:53 Cloudy 31 -0.6 18 -7.8 59 59 NW 15 24 30.23 1024 10 16 0.00 0.00
5:53 am 05:53 Mostly Clear 29 -1.7 19 -7.2 66 66 NW 12 19 30.24 1024 10 16 0.00 0.00
6:53 am 06:53 Clear 28 -2.2 17 -8.3 63 63 WNW 9 15 30.27 1025 10 16 0.00 0.00
7:53 am 07:53 Sunny 28 -2.2 18 -7.8 66 66 WNW 8 13 30.29 1026 10 16 0.00 0.00
8:53 am 08:53 Sunny 31 -0.6 19 -7.2 61 61 WNW 9 15 30.30 1026 10 16 0.00 0.00
9:53 am 09:53 Sunny 34 1.1 19 -7.2 54 54 WNW 13 20 30.31 1026 10 16 0.00 0.00
10:53 am 10:53 Sunny 35 1.7 19 -7.2 52 52 W 12 19 30.31 1026 10 16 0.00 0.00
11:53 am 11:53 Sunny 37 2.8 18 -7.8 46 46 W 6 9 30.29 1026 10 16 0.00 0.00
12:53 pm 12:53 Sunny 39 3.9 19 -7.2 45 45 SW 10 17 30.29 1026 10 16 0.00 0.00
1:53 pm 13:53 Mostly Sunny 40 4.4 18 -7.8 41 41 WSW 6 9 30.27 1025 10 16 0.00 0.00
2:53 pm 14:53 Mostly Sunny 43 6.1 19 -7.2 38 38 SW 8 13 30.23 1024 10 16 0.00 0.00
3:53 pm 15:53 Mostly Sunny 43 6.1 19 -7.2 38 38 SSW 9 15 30.20 1023 10 16 0.00 0.00
4:53 pm 16:53 Partly Cloudy 43 6.1 20 -6.7 40 40 W 8 13 30.20 1023 10 16 0.00 0.00
5:53 pm 17:53 Mostly Cloudy 42 5.6 22 -5.6 45 45 SW 7 11 30.19 1022 10 16 0.00 0.00
6:53 pm 18:53 Mostly Cloudy 42 5.6 23 -5 47 47 S 9 15 30.20 1023 10 16 0.00 0.00
7:53 pm 19:53 Mostly Cloudy 41 5 24 -4.4 51 51 S 8 13 30.19 1022 10 16 0.00 0.00
8:53 pm 20:53 Cloudy 41 5 25 -3.9 53 53 S 7 11 30.19 1022 10 16 0.00 0.00
9:53 pm 21:53 Cloudy 39 3.9 27 -2.8 62 62 SSE 6 9 30.18 1022 10 16 0.00 0.00
10:53 pm 22:53 Cloudy 38 3.3 28 -2.2 68 68 SSE 6 9 30.16 1022 10 16 0.00 0.00
11:53 pm 23:53 Cloudy 38 3.3 28 -2.2 68 68 SSE 8 13 30.16 1021 10 16 0.00 0.00

Powered by AerisWeather